Wind_Speed
33 30 29 26 23 18 20 21 22 20 20 21 21 22 23 22 16 14 17 24 25 26 26 25 22 24 30 34 32 33 28 22 26 18 23 25 39 41 37 31 25 22 18 14 14 12 8 10 8
27 27 27 25 19 19 24 22 23 21 20 21 21 22 22 19 18 20 23 28 29 31 32 31 29 28 30 30 22 27 26 30 22 26 25 30 32 26 25 26 21 21 19 17 13 12 9 7 7
24 25 25 23 19 19 22 23 24 21 20 20 19 20 21 22 21 25 27 29 28 30 34 38 35 35 34 35 36 31 30 21 16 26 20 30 30 29 29 23 18 18 18 14 12 9 8 6 10
23 23 24 22 22 19 21 25 26 22 19 19 20 20 20 23 24 25 24 28 31 32 35 40 44 41 38 36 34 27 34 29 19 20 21 32 30 25 21 21 19 20 17 14 11 11 9 8 11
23 23 25 22 19 20 21 24 23 20 19 19 22 21 24 23 27 27 27 30 29 31 31 33 39 47 47 36 36 30 28 37 30 20 24 34 33 30 26 24 21 18 16 14 13 12 13 14 16
22 23 23 24 22 21 22 25 24 19 21 21 20 20 24 24 27 26 28 30 29 28 24 27 29 44 45 41 39 39 26 31 29 27 32 35 36 30 26 24 24 21 19 16 15 15 16 15 15
22 23 22 24 24 22 24 25 25 25 23 23 21 19 22 25 27 28 28 30 31 24 18 18 21 36 46 47 49 36 34 27 30 30 27 29 35 29 27 25 22 21 18 18 15 16 13 13 15
22 21 23 22 23 22 24 24 26 25 22 24 21 17 20 24 25 26 28 30 32 28 20 14 9 36 36 39 29 34 36 29 28 26 25 28 37 34 30 27 26 23 20 17 17 18 18 15 13
22 20 23 20 21 22 24 24 25 26 25 21 16 17 18 21 23 24 25 28 30 30 23 13 7 7 31 23 42 38 42 28 29 31 27 30 32 36 34 30 29 24 21 20 19 19 19 16 14
23 20 26 23 20 20 24 22 25 24 23 24 17 17 21 23 21 21 24 26 33 30 21 17 8 10 23 24 17 40 36 29 27 29 28 24 36 39 36 32 30 26 22 20 20 20 17 18 16
25 22 26 28 23 20 20 20 25 22 20 22 23 21 22 24 19 20 21 25 29 33 23 16 10 11 20 21 25 27 37 31 24 28 29 25 36 41 35 33 29 26 20 22 21 18 19 19 20
27 24 24 27 28 21 18 19 21 22 19 19 23 23 20 20 17 20 22 25 29 28 27 20 14 15 18 23 25 29 39 26 32 29 28 30 37 39 36 33 30 28 25 24 22 21 22 21 20
29 27 25 25 30 25 17 19 21 21 18 19 21 18 18 17 17 18 23 23 25 24 24 18 21 14 21 21 28 35 34 36 40 30 30 30 38 39 39 38 32 31 32 25 24 24 23 21 19
33 29 26 27 29 27 19 18 22 23 16 18 20 14 18 15 18 18 21 22 23 22 21 19 21 22 15 23 32 34 28 38 34 40 34 29 36 41 44 40 36 35 32 25 23 24 25 20 22
34 29 28 28 29 28 20 18 23 20 18 16 16 10 12 15 23 20 23 24 25 25 19 19 19 21 18 13 27 40 43 43 40 41 35 37 35 38 40 42 37 36 31 29 25 28 26 28 26
35 33 26 28 31 30 19 17 24 21 18 15 13 13 12 16 25 25 25 25 27 24 19 17 21 22 23 27 22 38 50 47 46 44 44 35 34 37 40 41 37 36 31 28 30 29 27 27 31
35 32 26 28 31 34 22 15 24 24 17 17 13 13 16 19 23 24 25 25 27 24 17 17 21 21 20 23 22 32 39 53 50 44 50 42 39 41 44 46 41 36 30 30 31 29 27 27 27
31 32 29 28 39 34 26 18 21 24 17 18 16 14 14 20 22 21 21 23 24 21 14 14 17 18 20 13 14 28 40 48 43 47 40 41 41 41 42 44 39 33 34 30 30 30 29 27 27
41 36 34 30 39 33 29 23 20 20 22 20 21 16 15 19 19 18 17 19 20 15 10 12 14 13 13 5 13 24 36 39 45 37 35 41 42 42 44 39 35 34 34 31 27 27 27 30 30
40 39 38 31 37 37 31 28 22 19 20 22 22 17 15 16 15 14 15 15 16 11 9 9 11 12 11 11 17 24 30 37 36 39 43 42 44 41 36 33 33 36 34 31 31 32 32 30 29
42 40 35 34 38 37 36 32 25 19 21 20 23 16 13 15 13 11 12 14 13 10 6 8 9 8 12 6 13 23 27 25 40 31 35 41 38 36 38 34 26 30 34 35 37 35 33 32 28
43 39 36 38 40 41 42 37 24 13 19 22 25 18 12 12 13 11 9 11 9 9 6 7 10 9 10 13 17 17 19 23 30 20 25 34 28 27 30 34 30 31 33 34 33 33 32 31 25
38 36 38 40 44 44 43 39 18 15 19 23 23 15 12 12 14 12 8 9 10 7 8 6 3 4 7 14 15 18 21 25 24 29 26 28 29 30 31 31 32 31 31 30 30 30 24 24 25
37 37 39 41 41 47 39 39 22 15 20 22 24 18 12 13 14 10 8 8 11 10 5 2 5 2 1 5 12 15 21 23 25 35 33 22 29 34 36 34 37 32 29 24 20 20 20 22 23
46 39 38 42 44 45 43 38 26 17 19 21 23 19 14 14 14 13 9 6 7 8 8 5 5 4 2 2 6 8 9 14 18 20 21 23 26 29 25 20 19 17 17 20 20 21 22 25 30
32 36 35 39 36 36 44 44 30 22 21 17 22 23 17 15 17 18 15 9 9 8 8 7 7 8 6 6 5 7 8 9 9 9 8 9 10 11 13 13 15 17 17 20 22 22 25 28 30
36 38 32 41 41 43 42 44 37 22 22 19 18 24 20 18 20 19 20 14 13 11 10 8 7 9 8 9 9 9 8 9 11 11 12 13 14 15 14 15 17 19 20 19 22 24 25 28 28
39 39 39 41 44 47 45 42 38 27 21 22 18 23 25 20 22 21 20 19 14 13 16 15 8 8 10 11 11 10 9 11 11 13 15 16 17 17 18 18 19 20 21 23 25 26 27 29 30
29 40 40 41 43 41 40 29 38 33 20 24 17 22 25 23 22 24 23 22 20 19 17 16 20 18 14 15 16 15 15 13 12 14 17 20 20 21 19 19 19 20 21 25 26 27 30 34 35
29 30 37 44 45 42 42 40 39 30 16 19 17 21 25 23 25 27 22 22 21 19 19 21 22 22 21 22 21 20 18 18 18 20 19 24 23 22 22 23 22 21 23 25 30 32 32 34 39
Wind_Direction
304 306 303 296 295 304 298 307 308 302 300 304 306 309 319 313 316 298 296 297 293 287 279 274 264 249 243 245 241 249 255 214 208 222 231 226 214 205 189 182 174 172 174 176 189 203 207 224 221
306 312 306 302 301 312 309 311 309 301 299 306 305 310 319 310 321 310 297 292 284 276 269 262 256 246 241 234 231 235 234 225 206 211 210 210 203 204 183 177 170 171 179 183 197 203 211 221 224
311 316 313 307 302 306 310 310 309 298 297 302 301 303 311 305 308 299 291 287 279 273 270 261 253 246 240 242 241 245 245 230 221 213 224 206 204 188 185 181 176 173 186 194 195 204 207 210 227
310 312 308 306 306 300 309 316 314 300 297 298 291 297 299 303 304 293 286 284 276 280 276 260 249 243 236 237 232 230 236 247 227 212 229 203 193 180 184 186 194 191 198 208 202 214 219 220 221
302 308 304 298 293 293 306 309 315 295 291 294 290 290 293 296 299 291 287 283 280 285 288 275 254 230 224 222 234 225 213 236 241 237 230 206 193 187 188 186 188 189 196 211 214 212 217 219 230
298 300 307 298 293 294 305 309 321 307 288 288 290 284 283 289 292 289 289 288 293 299 298 284 249 211 202 211 222 216 211 223 222 235 234 220 196 192 191 194 196 199 202 213 220 218 218 228 238
291 296 301 292 287 294 303 312 321 322 297 289 296 291 286 283 290 289 295 288 299 302 295 309 256 240 188 203 204 209 218 225 224 232 242 229 192 192 194 201 200 207 215 228 229 226 224 234 240
282 288 292 288 288 294 301 311 320 318 300 296 299 297 290 284 292 291 295 297 300 304 308 309 269 175 199 194 199 192 203 202 220 222 233 229 197 191 197 206 212 213 219 228 233 233 224 235 246
274 283 285 283 285 290 298 308 317 322 309 300 305 297 292 288 294 299 302 299 300 303 310 319 285 221 190 194 200 207 200 188 213 219 213 219 197 202 205 207 215 215 225 234 234 229 231 239 251
266 270 281 285 283 285 292 306 317 324 315 305 308 294 291 293 290 301 305 303 303 303 305 300 277 228 199 192 200 195 184 206 203 205 210 222 210 198 208 209 217 223 230 242 236 237 239 241 250
262 265 275 284 282 281 287 305 315 320 316 315 312 306 289 282 287 297 300 303 299 300 300 285 279 237 203 209 203 195 199 214 218 207 211 214 212 199 204 212 219 229 234 243 239 241 241 245 251
262 258 265 277 281 284 290 302 312 312 320 318 316 310 290 281 287 297 303 305 300 289 283 287 279 241 214 206 207 213 215 224 205 215 218 216 208 204 206 215 217 228 236 240 237 246 252 250 265
262 254 256 264 273 280 289 300 306 306 320 319 316 314 283 281 292 306 309 308 298 285 281 272 272 237 224 217 220 221 216 213 215 214 213 211 204 202 212 212 220 230 234 232 241 251 267 258 268
257 254 256 258 266 271 278 295 295 299 307 323 311 316 290 296 306 318 316 310 300 290 275 271 272 269 232 224 224 217 208 222 224 219 220 210 216 216 220 211 219 228 233 235 245 260 261 256 266
256 255 257 262 266 268 274 288 287 300 307 321 311 310 290 305 314 321 321 319 310 302 274 261 259 266 280 263 217 220 219 222 223 213 214 217 212 213 210 210 217 230 235 239 244 254 258 258 261
251 253 256 260 267 267 264 284 283 299 305 313 308 301 294 299 316 323 320 321 315 309 278 251 255 260 276 283 243 224 222 212 213 211 211 214 206 212 209 216 219 229 232 239 247 253 257 261 258
248 255 257 262 259 264 263 256 279 293 303 307 304 296 302 300 316 316 316 322 318 311 277 248 254 259 267 276 234 224 217 209 208 215 218 210 219 215 215 217 222 230 238 239 244 248 259 263 268
258 253 250 252 258 259 264 250 265 282 289 297 301 291 298 300 317 310 314 326 326 309 264 252 246 259 275 255 216 200 199 204 203 207 208 212 204 204 216 220 224 229 235 237 246 253 260 265 267
245 246 246 242 252 256 263 255 258 268 285 292 297 292 290 298 315 306 316 333 330 306 252 238 241 253 260 298 183 176 180 185 207 199 205 204 207 206 216 225 230 236 238 241 247 258 260 266 267
243 243 243 243 254 258 256 258 256 261 279 290 291 291 289 297 305 304 317 340 344 313 269 235 229 256 244 240 185 172 182 190 199 197 209 208 210 215 224 229 236 234 239 247 254 265 264 265 264
239 241 244 245 246 252 254 256 258 268 272 279 283 283 281 290 297 303 320 331 358 342 282 226 224 233 258 234 163 181 197 204 189 204 209 210 210 226 232 236 235 239 244 248 257 264 263 266 261
237 241 241 239 243 249 253 257 253 253 266 275 273 279 269 289 288 291 311 324 340 0 4 258 233 241 259 232 197 189 190 185 191 196 196 201 212 215 220 230 246 252 254 256 257 261 265 265 258
234 237 237 238 242 247 251 258 247 256 262 265 270 273 259 270 279 281 285 306 319 339 15 16 208 191 199 226 229 226 228 222 218 205 212 223 225 231 234 245 253 256 257 253 255 264 256 250 242
231 231 234 235 242 247 247 253 248 245 253 262 270 269 249 253 274 277 285 290 298 306 313 6 7 334 163 171 221 239 223 231 234 215 221 242 237 233 233 244 252 255 254 258 249 249 251 254 258
230 224 235 237 241 248 252 249 249 238 249 256 266 261 242 244 258 266 265 288 314 317 293 276 259 250 265 217 178 175 186 212 227 235 240 241 239 233 247 236 234 234 234 241 253 260 266 261 264
241 227 227 241 250 255 251 251 248 236 256 249 247 262 245 244 254 254 256 264 286 304 305 273 270 252 232 247 228 195 175 170 184 196 205 209 215 224 232 232 238 244 244 251 255 259 263 264 262
239 237 233 234 238 245 248 250 254 232 247 251 243 255 245 240 247 246 250 257 271 284 296 261 245 267 262 238 238 239 229 212 201 205 213 224 227 225 229 236 240 243 246 251 255 258 264 265 269
234 235 235 235 233 240 246 252 258 251 237 256 243 253 251 247 243 249 248 250 248 268 295 277 259 264 264 259 243 232 232 237 236 235 233 232 231 229 233 240 249 254 256 259 262 264 269 277 278
234 238 242 241 242 241 246 250 258 256 237 251 250 243 247 239 241 243 249 242 251 279 278 274 274 276 273 267 253 246 243 242 247 256 257 253 250 246 243 244 249 256 257 262 268 276 283 283 283
240 238 234 236 240 245 246 242 255 258 238 242 238 237 237 234 246 247 242 243 258 266 271 278 278 276 281 279 262 256 254 258 261 266 287 257 254 251 245 247 252 261 266 270 280 277 286 285 291
Height
5830 5826 5823 5821 5823 5820 5817 5814 5810 5807 5806 5804 5802 5801 5798 5795 5793 5793 5789 5787 5785 5783 5782 5782 5783 5784 5786 5790 5795 5797 5797 5801 5804 5808 5809 5811 5811 5813 5818 5820 5823 5825 5829 5832 5835 5838 5838 5841 5842
5825 5822 5819 5817 5819 5815 5813 5811 5807 5803 5801 5799 5798 5795 5793 5791 5787 5786 5784 5782 5780 5778 5776 5777 5779 5781 5782 5784 5788 5792 5795 5797 5798 5803 5805 5808 5810 5811 5814 5817 5820 5822 5827 5830 5833 5835 5835 5836 5839
5822 5818 5817 5814 5814 5813 5811 5807 5804 5800 5798 5795 5794 5791 5789 5786 5783 5781 5779 5776 5774 5772 5769 5770 5772 5773 5776 5779 5783 5787 5791 5793 5797 5799 5803 5806 5807 5808 5811 5814 5818 5821 5825 5828 5828 5830 5831 5832 5837
5819 5816 5814 5812 5810 5809 5808 5804 5800 5797 5794 5791 5788 5787 5785 5781 5779 5776 5774 5770 5767 5765 5762 5759 5761 5764 5768 5774 5777 5780 5785 5790 5792 5795 5800 5803 5804 5807 5811 5813 5816 5818 5821 5825 5824 5827 5829 5831 5835
5816 5813 5811 5808 5807 5805 5803 5800 5797 5793 5791 5787 5784 5783 5780 5777 5775 5772 5769 5764 5760 5758 5753 5748 5738 5745 5756 5764 5771 5774 5779 5785 5789 5792 5797 5800 5801 5804 5810 5811 5812 5815 5819 5821 5823 5825 5826 5829 5831
5813 5811 5808 5805 5803 5800 5799 5796 5793 5790 5785 5783 5781 5778 5776 5773 5771 5766 5763 5757 5755 5749 5747 5742 5731 5725 5732 5752 5764 5768 5772 5779 5784 5790 5793 5794 5798 5802 5807 5809 5810 5813 5816 5818 5820 5821 5823 5825 5828
5809 5808 5804 5802 5801 5797 5795 5791 5787 5784 5781 5778 5777 5774 5772 5769 5766 5761 5757 5752 5748 5745 5743 5736 5732 5725 5730 5747 5754 5761 5768 5775 5780 5785 5788 5788 5794 5799 5805 5808 5808 5810 5812 5815 5817 5819 5821 5822 5825
5805 5804 5801 5799 5797 5794 5790 5788 5783 5780 5777 5773 5772 5770 5768 5765 5761 5756 5751 5746 5744 5740 5737 5735 5728 5727 5734 5742 5746 5758 5762 5768 5775 5780 5784 5788 5790 5795 5801 5804 5805 5807 5810 5812 5814 5816 5818 5820 5821
5800 5801 5797 5795 5793 5790 5786 5784 5779 5776 5773 5770 5768 5767 5765 5761 5757 5752 5748 5742 5739 5735 5733 5732 5730 5727 5733 5736 5752 5757 5753 5758 5769 5775 5780 5784 5787 5792 5796 5800 5803 5805 5807 5810 5811 5812 5815 5816 5816
5796 5796 5794 5791 5787 5786 5783 5779 5775 5773 5770 5767 5765 5763 5762 5758 5753 5748 5746 5741 5732 5731 5731 5728 5730 5731 5733 5742 5747 5754 5753 5762 5765 5770 5775 5780 5784 5789 5794 5796 5799 5802 5804 5806 5808 5809 5810 5811 5812
5790 5792 5788 5786 5783 5780 5779 5775 5772 5768 5766 5765 5762 5759 5757 5754 5750 5745 5743 5740 5735 5727 5729 5730 5730 5730 5733 5737 5745 5748 5756 5757 5761 5766 5772 5777 5779 5785 5790 5793 5795 5799 5801 5803 5804 5804 5806 5806 5808
5784 5785 5783 5782 5777 5775 5773 5771 5768 5764 5762 5760 5758 5756 5754 5751 5746 5741 5740 5738 5733 5729 5728 5728 5728 5729 5731 5735 5738 5743 5750 5752 5757 5764 5768 5773 5776 5782 5787 5790 5793 5795 5797 5799 5800 5802 5802 5804 5803
5778 5778 5778 5777 5772 5770 5769 5766 5764 5761 5758 5756 5755 5752 5751 5748 5744 5739 5735 5732 5730 5727 5724 5727 5726 5725 5726 5729 5733 5738 5742 5749 5752 5759 5764 5769 5773 5779 5783 5787 5788 5791 5794 5796 5797 5798 5798 5799 5797
5770 5772 5772 5771 5768 5766 5765 5763 5759 5757 5755 5753 5751 5748 5749 5746 5742 5736 5732 5728 5726 5724 5722 5721 5723 5723 5723 5725 5728 5732 5735 5742 5746 5753 5760 5764 5769 5774 5778 5782 5784 5787 5791 5791 5794 5795 5794 5794 5796
5763 5765 5765 5765 5763 5761 5761 5760 5754 5755 5751 5749 5747 5744 5745 5744 5740 5734 5730 5725 5722 5720 5719 5720 5719 5717 5717 5717 5720 5722 5726 5734 5741 5747 5754 5760 5765 5769 5772 5778 5780 5784 5785 5787 5789 5790 5791 5791 5790
5755 5757 5759 5758 5754 5754 5757 5756 5749 5751 5748 5746 5745 5742 5742 5740 5737 5731 5727 5723 5718 5716 5714 5715 5716 5715 5714 5712 5712 5714 5716 5726 5735 5741 5748 5754 5759 5764 5769 5772 5775 5778 5781 5783 5785 5786 5787 5786 5788
5746 5751 5753 5750 5748 5746 5750 5752 5745 5744 5745 5741 5741 5739 5738 5737 5735 5730 5723 5722 5716 5712 5711 5711 5712 5713 5712 5708 5705 5705 5711 5719 5729 5736 5742 5749 5753 5759 5764 5767 5769 5773 5777 5779 5781 5781 5781 5781 5780
5743 5741 5743 5744 5739 5740 5742 5745 5743 5740 5741 5738 5737 5736 5734 5733 5732 5728 5722 5720 5713 5709 5707 5708 5709 5709 5705 5702 5699 5695 5703 5714 5723 5732 5738 5742 5747 5753 5757 5761 5765 5768 5772 5774 5775 5775 5775 5776 5776
5728 5731 5733 5738 5733 5734 5735 5737 5738 5736 5734 5734 5733 5732 5731 5730 5728 5726 5721 5718 5712 5707 5705 5706 5707 5707 5705 5701 5698 5697 5702 5711 5722 5728 5734 5738 5742 5747 5752 5757 5760 5765 5767 5768 5769 5769 5770 5770 5770
5719 5721 5724 5729 5726 5726 5729 5729 5732 5733 5731 5729 5728 5728 5728 5726 5725 5723 5719 5717 5711 5707 5704 5703 5706 5706 5705 5704 5700 5701 5707 5714 5719 5724 5729 5734 5740 5744 5749 5754 5757 5759 5761 5762 5763 5764 5765 5764 5764
5709 5712 5717 5720 5718 5719 5720 5722 5726 5727 5726 5723 5722 5723 5724 5723 5723 5721 5717 5716 5712 5707 5706 5704 5704 5705 5705 5707 5704 5704 5709 5712 5718 5722 5727 5732 5738 5742 5746 5750 5751 5754 5755 5757 5758 5759 5759 5759 5759
5700 5705 5708 5709 5710 5712 5710 5714 5721 5722 5721 5719 5717 5719 5720 5721 5721 5720 5716 5714 5713 5709 5706 5705 5703 5703 5705 5707 5707 5709 5710 5713 5717 5721 5725 5730 5734 5738 5741 5744 5746 5748 5750 5752 5752 5753 5753 5754 5753
5692 5694 5697 5699 5699 5702 5703 5708 5718 5717 5715 5714 5713 5715 5715 5717 5717 5717 5715 5713 5712 5710 5707 5706 5704 5703 5703 5705 5708 5709 5712 5713 5716 5720 5724 5728 5731 5733 5736 5738 5741 5743 5744 5744 5746 5747 5748 5748 5748
5681 5685 5687 5690 5693 5691 5699 5702 5710 5712 5710 5709 5707 5710 5711 5713 5714 5715 5714 5712 5710 5709 5708 5707 5706 5704 5703 5704 5707 5708 5709 5712 5715 5718 5721 5723 5727 5730 5732 5734 5735 5736 5739 5740 5742 5743 5744 5746 5745
5669 5673 5679 5683 5684 5686 5690 5696 5704 5707 5704 5705 5704 5705 5707 5708 5710 5711 5711 5710 5710 5708 5707 5706 5706 5707 5706 5706 5705 5706 5707 5710 5712 5714 5716 5719 5722 5724 5727 5729 5732 5733 5735 5737 5739 5740 5741 5740 5741
5660 5664 5670 5675 5680 5684 5682 5683 5695 5700 5698 5700 5700 5698 5702 5704 5706 5708 5708 5707 5708 5707 5707 5705 5706 5706 5706 5707 5707 5707 5707 5709 5712 5714 5716 5717 5719 5722 5726 5726 5728 5730 5731 5733 5734 5734 5735 5734 5735
5653 5653 5666 5665 5669 5670 5675 5676 5683 5694 5694 5695 5696 5695 5697 5700 5701 5703 5704 5704 5704 5705 5705 5705 5704 5705 5706 5706 5707 5707 5708 5709 5710 5711 5714 5716 5718 5720 5721 5724 5727 5729 5730 5729 5729 5730 5731 5729 5727
5644 5650 5653 5654 5658 5662 5666 5671 5676 5684 5689 5688 5693 5692 5692 5695 5697 5698 5700 5700 5701 5702 5702 5702 5702 5702 5703 5703 5704 5705 5706 5708 5709 5710 5711 5713 5716 5717 5719 5720 5722 5723 5723 5723 5723 5724 5723 5720 5720
5638 5640 5645 5649 5651 5656 5661 5668 5665 5673 5682 5682 5686 5687 5687 5689 5692 5693 5694 5696 5697 5699 5699 5697 5698 5698 5699 5701 5702 5703 5705 5706 5708 5709 5711 5711 5712 5713 5713 5713 5715 5716 5717 5717 5715 5714 5714 5713 5713
5629 5633 5636 5640 5645 5647 5653 5659 5658 5666 5674 5676 5678 5681 5682 5683 5685 5687 5689 5691 5692 5693 5695 5695 5694 5693 5694 5696 5699 5700 5701 5702 5703 5703 5703 5705 5706 5707 5707 5708 5709 5709 5709 5708 5707 5706 5707 5706 5704